sat.trackr.live / text

‹ back to catalog

STARLINK-31113

NORAD 58668 · 2023-211B

PAYLOAD ACTIVE UNKNOWN

§ Identity

Operator
Country
US
Launch date
2023-12-29
Launch site
AFETR
Launch vehicle
Mass (kg)
RCS (m²)

Purposes: comms

External: N2YO · Heavens-Above · Gunter

§ Orbital elements

Epoch: 2026-05-25T00:45:49.368096Z

Period
94.27 min
Inclination
43.0041°
Eccentricity
0.0001326
Mean motion
15.27576601 rev/d
Perigee alt
482.1 km
Apogee alt
484.0 km
Semi-major
6,861.2 km
B*
2.5670e-5
RAAN
13.8389°
Arg perigee
251.4146°
Mean anomaly
108.6561°
Rev number
13,414

§ Raw data

STARLINK-311131 58668U 23211B   26145.03182139  .00000444  00000+0  25670-4 0  99922 58668  43.0041  13.8389 0001326 251.4146 108.6561 15.27576601134144

JSON: /api/v1/satellites/58668 · /tle

For live sub-satellite position, see the globe view (requires WebGL).

§ Visibility from observer

Set your observer location to see the next 7 days of passes ≥ 10°. The values pass through the URL so the page stays shareable.

No JS? Fill the form by hand. The geolocation button needs JavaScript.